Location: D�derode
(51.8092°N, 10.1065°E)
Time: 14:05:27
(UTC+00:00)

CZ-2C DEB - Visible Passes

Search period start: 20 June 2021 00:00
Search period end: 30 June 2021 00:00
Orbit: 689 x 954 km, 98.0° (Epoch: 19 June)

Date Brightness Start Highest point End Pass type
(mag) Time Alt. Az. Time Alt. Az. Time Alt. Az.
20 Jun ? 01:22:28 10° NNW 01:25:03 13° NW 01:27:35 10° WNW visible
20 Jun ? 21:41:00 10° NE 21:44:47 19° E 21:47:59 11° SE visible
20 Jun ? 23:20:08 10° NNE 23:25:45 80° WNW 23:29:22 21° SSW visible
21 Jun ? 01:01:29 10° NNW 01:05:03 18° NW 01:08:28 10° W visible
21 Jun ? 21:21:43 10° NE 21:24:01 13° E 21:26:17 10° ESE visible
21 Jun ? 22:59:48 10° NNE 23:05:21 74° ESE 23:08:43 22° S visible
22 Jun ? 00:40:43 10° N 00:44:58 23° NW 00:48:59 10° WSW visible
22 Jun ? 22:39:31 10° NNE 22:44:53 52° E 22:48:03 22° SSE visible
23 Jun ? 00:20:05 10° N 00:24:49 30° WNW 00:29:17 10° WSW visible
23 Jun ? 22:19:21 10° NNE 22:24:21 36° E 22:27:24 19° SSE visible
23 Jun ? 23:59:31 10° N 00:04:38 41° WNW 00:08:47 13° SW visible
24 Jun ? 21:59:19 10° NE 22:03:44 25° E 22:06:45 15° SE visible
24 Jun ? 23:39:02 10° N 23:44:22 57° WNW 23:48:07 17° SW visible
25 Jun ? 01:21:07 10° NNW 01:23:23 13° NW 01:25:35 10° WNW visible
25 Jun ? 21:39:32 10° NE 21:43:03 18° E 21:46:05 11° SE visible
25 Jun ? 23:18:37 10° NNE 23:24:02 80° WNW 23:27:28 21° SSW visible
26 Jun ? 01:00:02 10° NNW 01:03:21 17° NW 01:06:32 10° W visible
26 Jun ? 21:20:22 10° ENE 21:22:18 12° E 21:24:11 10° ESE visible
26 Jun ? 22:58:16 10° NNE 23:03:37 73° ESE 23:06:48 23° S visible
27 Jun ? 00:39:13 10° N 00:43:15 22° NW 00:47:05 10° WSW visible
27 Jun ? 22:37:58 10° NNE 22:43:08 50° E 22:46:08 22° SSE visible
28 Jun ? 00:18:33 10° N 00:23:06 29° WNW 00:27:23 10° WSW visible
28 Jun ? 22:17:48 10° NNE 22:22:35 35° E 22:25:28 19° SSE visible
28 Jun ? 23:57:58 10° N 00:02:54 40° WNW 00:06:50 14° SW visible
29 Jun ? 21:57:46 10° NE 22:01:58 24° E 22:04:47 15° SE visible
29 Jun ? 23:37:28 10° N 23:42:37 56° WNW 23:46:10 18° SW visible
